Batesville, AR

11:58 PM CST on December 11, 2019 (GMT -0600)
Batesville Regional

Weather History for KBVX - October, 2019

Change the Weather History Date:

Tuesday, October 22, 2019

  Actual Average Record
Temperature  
Mean Temperature 56 °F -  
Max Temperature 66 °F 71 °F 87 °F (1953)
Min Temperature 45 °F 46 °F 23 °F (1952)
Degree Days  
Heating Degree Days 9    
Growing Degree Days 6 (Base 50)    
Moisture  
Dew Point 35 °F    
Average Humidity 47    
Maximum Humidity 82    
Minimum Humidity 25    
Precipitation  
Precipitation 0.00 in - - ()
Sea Level Pressure  
Sea Level Pressure 30.04 in    
Wind  
Wind Speed 7 mph ()    
Max Wind Speed 15 mph    
Max Gust Speed 22 mph    
Visibility 10.0 miles    
Events      
Averages and records for this station are not official NWS values.
T = Trace of Precipitation, MM = Missing Value Source: Averaged Metar Reports

Daily Weather History Graph

Daily Weather History Graph

Search for Another Location

Airport or City:

Astronomy

Oct. 22, 2019 Rise Set
Actual Time 7:19 AM CDT 6:22 PM CDT
Civil Twilight 6:53 AM CDT 6:48 PM CDT
Nautical Twilight 6:23 AM CDT 7:18 PM CDT
Astronomical Twilight 5:53 AM CDT 7:47 PM CDT
Moon 12:45 AM CDT (10/22) 3:16 PM CDT (10/22)
Length of Visible Light 11h 55m
Length of Day
11h 03m
Last Quarter, 37% of the Moon is Illuminated
Oct 22
Last Quarter
Oct 27
New
Nov 4
First Quarter
Nov 12
Full
Nov 19
Last Quarter

Hourly Weather History & Observations

Time (CDT) Temp. Dew Point Humidity Pressure Visibility Wind Dir Wind Speed Gust Speed Precip Events Conditions
12:56 AM 57.9 °F 36.0 °F 44% 29.92 in 10.0 mi WNW 6.9 mph - N/A   Clear
1:56 AM 55.0 °F 36.0 °F 49% 29.93 in 10.0 mi WSW 4.6 mph - N/A   Clear
2:56 AM 54.0 °F 35.1 °F 49% 29.94 in 10.0 mi West 5.8 mph - N/A   Clear
3:56 AM 54.0 °F 35.1 °F 49% 29.95 in 10.0 mi WNW 6.9 mph - N/A   Clear
4:56 AM 52.0 °F 35.1 °F 53% 29.96 in 10.0 mi WNW 5.8 mph - N/A   Clear
5:56 AM 51.1 °F 36.0 °F 56% 29.99 in 10.0 mi West 6.9 mph - N/A   Clear
6:56 AM 50.0 °F 36.0 °F 59% 30.02 in 10.0 mi West 9.2 mph - N/A   Clear
7:56 AM 50.0 °F 36.0 °F 59% 30.04 in 10.0 mi WNW 8.1 mph - N/A   Clear
8:56 AM 54.0 °F 34.0 °F 47% 30.06 in 10.0 mi West 15.0 mph 21.9 mph N/A   Clear
9:56 AM 57.0 °F 32.0 °F 39% 30.08 in 10.0 mi WNW 12.7 mph 21.9 mph N/A   Clear
10:56 AM 59.0 °F 30.9 °F 35% 30.10 in 10.0 mi West 9.2 mph 19.6 mph N/A   Clear
11:56 AM 61.0 °F 30.0 °F 31% 30.10 in 10.0 mi WNW 11.5 mph 19.6 mph N/A   Clear
12:56 PM 63.0 °F 30.9 °F 30% 30.09 in 10.0 mi WNW 11.5 mph 19.6 mph N/A   Clear
1:56 PM 64.9 °F 30.9 °F 28% 30.07 in 10.0 mi WNW 9.2 mph 20.7 mph N/A   Clear
2:56 PM 66.9 °F 30.9 °F 26% 30.06 in 10.0 mi West 13.8 mph - N/A   Partly Cloudy
3:56 PM 66.9 °F 30.0 °F 25% 30.04 in 10.0 mi West 13.8 mph 20.7 mph N/A   Clear
4:56 PM 66.0 °F 30.9 °F 27% 30.04 in 10.0 mi West 13.8 mph 21.9 mph N/A   Clear
5:56 PM 63.0 °F 30.9 °F 30% 30.05 in 10.0 mi WNW 6.9 mph - N/A   Clear
6:56 PM 55.9 °F 36.0 °F 47% 30.07 in 10.0 mi SW 5.8 mph - N/A   Clear
7:56 PM 52.0 °F 39.9 °F 63% 30.09 in 10.0 mi West 5.8 mph - N/A   Clear
8:56 PM 51.1 °F 39.9 °F 66% 30.10 in 10.0 mi Calm Calm - N/A   Clear
9:56 PM 50.0 °F 39.0 °F 66% 30.12 in 10.0 mi Calm Calm - N/A   Clear
10:56 PM 46.9 °F 39.9 °F 77% 30.12 in 10.0 mi Calm Calm - N/A   Clear
11:56 PM 45.0 °F 39.9 °F 82% 30.11 in 10.0 mi Calm Calm - N/A   Clear